Location: Hope
(40.9110°N, 74.9680°W)
Time: 06:54:42
(UTC-05:00)

X-37B - Visible Passes

Search period start: 28 November 2022 00:00
Search period end: 08 December 2022 00:00
Orbit: 277 x 277 km, 45.0° (Epoch: 01 November)

Date Brightness Start Highest point End Pass type
(mag) Time Alt. Az. Time Alt. Az. Time Alt. Az.
05 Dec 3.1 18:30:48 10° SW 18:31:11 13° SSW 18:31:11 13° SSW visible
06 Dec 2.8 18:31:13 10° SW 18:32:02 18° SW 18:32:02 18° SW visible
07 Dec 2.8 18:31:51 10° WSW 18:32:48 20° WSW 18:32:48 20° WSW visible
